JAI506 OMDB-VABB

Flight info

Callsign JAI506
Flight time N/A
Altitude 37000
Route IVURO M677 LALDO B505 NADSO A777 VAXIM L301 KARKU M638 EXOLU POKON2A
Aircraft B77W/H-SDE1E2E3FGHIJ2J3J4J5M1RWXY/LB1D1

Departure

Time 2026-04-21 08:34
Airport Dubai International Airport (OMDB)

Arrival

Time N/A
Airport Chhatrapati Shivaji Maharaj International Airport (VABB)
Time Latitude Longitude Altitude Speed Heading
2026-04-21 08:26 25.24228 55.37968 28 ft 13 kts 122°
2026-04-21 08:27 25.24178 55.38055 28 ft 13 kts 122°
2026-04-21 08:27 25.24130 55.38142 28 ft 13 kts 121°
2026-04-21 08:27 25.24081 55.38230 28 ft 13 kts 122°
2026-04-21 08:27 25.24031 55.38317 28 ft 13 kts 122°
2026-04-21 08:28 25.23982 55.38404 28 ft 13 kts 121°
2026-04-21 08:28 25.23933 55.38493 27 ft 13 kts 121°
2026-04-21 08:28 25.23884 55.38580 27 ft 13 kts 122°
2026-04-21 08:28 25.23835 55.38666 28 ft 13 kts 121°
2026-04-21 08:29 25.23786 55.38754 28 ft 13 kts 121°
2026-04-21 08:29 25.23737 55.38840 28 ft 13 kts 122°
2026-04-21 08:29 25.23687 55.38928 28 ft 13 kts 122°
2026-04-21 08:29 25.23639 55.39016 28 ft 13 kts 121°
2026-04-21 08:30 25.23590 55.39103 28 ft 13 kts 121°
2026-04-21 08:30 25.23540 55.39191 28 ft 13 kts 122°
2026-04-21 08:30 25.23492 55.39278 28 ft 13 kts 122°
2026-04-21 08:30 25.23442 55.39365 28 ft 13 kts 122°
2026-04-21 08:31 25.23393 55.39453 27 ft 13 kts 122°
2026-04-21 08:31 25.23344 55.39540 27 ft 13 kts 121°
2026-04-21 08:31 25.23332 55.39561 26 ft 1 kts 121°
2026-04-21 08:31 25.23327 55.39572 26 ft 2 kts 121°
2026-04-21 08:32 25.23317 55.39589 26 ft 3 kts 121°
2026-04-21 08:32 25.23304 55.39613 29 ft 4 kts 120°
2026-04-21 08:32 25.23305 55.39643 29 ft 4 kts 54°
2026-04-21 08:32 25.23320 55.39653 32 ft 0 kts 32°
2026-04-21 08:33 25.23361 55.39674 26 ft 17 kts 14°
2026-04-21 08:34 25.23535 55.39584 30 ft 40 kts 306°
2026-04-21 08:34 25.23738 55.39222 37 ft 90 kts 301°
2026-04-21 08:34 25.24264 55.38273 95 ft 195 kts 302°
2026-04-21 08:34 25.25043 55.36878 1106 ft 219 kts 302°
2026-04-21 08:35 25.25832 55.35434 2636 ft 226 kts 306°
2026-04-21 08:35 25.26734 55.33952 3915 ft 234 kts 306°
2026-04-21 08:35 25.27672 55.32455 4791 ft 242 kts 306°
2026-04-21 08:35 25.28647 55.30920 5651 ft 246 kts 308°
2026-04-21 08:36 25.29974 55.29745 6476 ft 248 kts 341°
2026-04-21 08:36 25.31675 55.29473 7308 ft 250 kts
2026-04-21 08:36 25.33348 55.29521 8062 ft 255 kts
2026-04-21 08:36 25.35055 55.29574 8969 ft 258 kts 360°
2026-04-21 08:37 25.36723 55.29625 9794 ft 262 kts 359°
2026-04-21 08:37 25.38558 55.29706 10488 ft 267 kts
2026-04-21 08:37 25.40290 55.30483 11091 ft 282 kts 38°
2026-04-21 08:37 25.41638 55.32081 11486 ft 302 kts 51°
2026-04-21 08:38 25.43006 55.33987 11705 ft 331 kts 51°
2026-04-21 08:38 25.44502 55.36081 11941 ft 361 kts 51°
2026-04-21 08:38 25.46063 55.38248 12146 ft 388 kts 51°
2026-04-21 08:38 25.47791 55.40620 12724 ft 402 kts 50°
2026-04-21 08:39 25.49548 55.43061 13510 ft 410 kts 51°
2026-04-21 08:39 25.51193 55.45651 14213 ft 413 kts 62°
2026-04-21 08:39 25.52037 55.48706 14855 ft 421 kts 84°
2026-04-21 08:39 25.51901 55.51946 15704 ft 423 kts 102°
2026-04-21 08:40 25.50953 55.54992 16517 ft 425 kts 120°
2026-04-21 08:40 25.49368 55.57806 17190 ft 429 kts 125°
2026-04-21 08:40 25.47715 55.60544 17878 ft 437 kts 125°
2026-04-21 08:40 25.46036 55.63373 18552 ft 443 kts 124°
2026-04-21 08:41 25.44373 55.66256 19232 ft 447 kts 124°
2026-04-21 08:41 25.42754 55.69220 19903 ft 453 kts 118°
2026-04-21 08:41 25.41728 55.72535 20477 ft 460 kts 102°
2026-04-21 08:41 25.41131 55.76032 21098 ft 466 kts 102°
2026-04-21 08:42 25.40473 55.79563 21750 ft 470 kts 103°
2026-04-21 08:42 25.39736 55.83101 22350 ft 475 kts 104°
2026-04-21 08:42 25.38954 55.86689 22987 ft 480 kts 104°
2026-04-21 08:42 25.38170 55.90294 23549 ft 485 kts 104°
2026-04-21 08:43 25.37387 55.93934 24041 ft 489 kts 104°
2026-04-21 08:43 25.36601 55.97606 24595 ft 492 kts 104°
2026-04-21 08:43 25.36077 56.00056 24969 ft 494 kts 104°
2026-04-21 08:43 25.35283 56.03758 25527 ft 496 kts 104°
2026-04-21 08:44 25.34483 56.07491 26050 ft 500 kts 104°
2026-04-21 08:44 25.33675 56.11246 26557 ft 503 kts 104°
2026-04-21 08:44 25.32864 56.15016 27073 ft 506 kts 104°
2026-04-21 08:44 25.32257 56.18868 27574 ft 510 kts 98°
2026-04-21 08:45 25.31944 56.22788 28068 ft 513 kts 95°
2026-04-21 08:45 25.31732 56.26738 28530 ft 516 kts 94°
2026-04-21 08:45 25.31502 56.30655 28965 ft 519 kts 95°
2026-04-21 08:45 25.31202 56.34644 29405 ft 521 kts 96°
2026-04-21 08:46 25.30861 56.38644 29808 ft 524 kts 96°
2026-04-21 08:46 25.30620 56.42675 30207 ft 525 kts 93°
2026-04-21 08:46 25.30517 56.46705 30663 ft 524 kts 92°
2026-04-21 08:46 25.30436 56.50728 31141 ft 522 kts 92°
2026-04-21 08:47 25.30297 56.54728 31594 ft 521 kts 95°
2026-04-21 08:47 25.29816 56.58680 32015 ft 520 kts 102°
2026-04-21 08:47 25.29010 56.62490 32419 ft 519 kts 106°
2026-04-21 08:47 25.27900 56.66275 32810 ft 517 kts 112°
2026-04-21 08:48 25.26522 56.69948 33217 ft 517 kts 114°
2026-04-21 08:48 25.25122 56.73554 33614 ft 516 kts 114°
2026-04-21 08:48 25.23702 56.77193 33986 ft 516 kts 114°
2026-04-21 08:48 25.22283 56.80845 34253 ft 518 kts 114°
2026-04-21 08:49 25.20869 56.84515 34458 ft 521 kts 114°
2026-04-21 08:49 25.19457 56.88207 34674 ft 523 kts 113°
2026-04-21 08:49 25.18045 56.91913 34911 ft 525 kts 113°
2026-04-21 08:49 25.16631 56.95631 35152 ft 527 kts 113°
2026-04-21 08:50 25.15206 56.99378 35361 ft 529 kts 112°
2026-04-21 08:50 25.13775 57.03135 35606 ft 530 kts 112°
2026-04-21 08:50 25.12345 57.06884 35850 ft 532 kts 112°
2026-04-21 08:50 25.10921 57.10614 36077 ft 533 kts 112°
2026-04-21 08:51 25.09479 57.14385 36312 ft 535 kts 112°
2026-04-21 08:51 25.08028 57.18175 36555 ft 536 kts 112°
2026-04-21 08:51 25.06572 57.21975 36743 ft 538 kts 112°
2026-04-21 08:52 25.03642 57.29612 36840 ft 542 kts 112°
2026-04-21 08:52 25.00707 57.37245 36826 ft 536 kts 112°
2026-04-21 08:53 24.97798 57.44798 36832 ft 533 kts 111°
2026-04-21 08:53 24.94897 57.52320 36834 ft 533 kts 111°
2026-04-21 08:54 24.91994 57.59835 36832 ft 533 kts 111°
2026-04-21 08:54 24.89105 57.67298 36833 ft 533 kts 111°
2026-04-21 08:55 24.86192 57.74811 36831 ft 533 kts 111°
2026-04-21 08:55 24.83266 57.82345 36832 ft 534 kts 112°
2026-04-21 08:56 24.80157 57.89779 36837 ft 534 kts 115°
2026-04-21 08:56 24.76899 57.97071 36836 ft 534 kts 115°
2026-04-21 08:57 24.73635 58.04408 36835 ft 533 kts 115°
2026-04-21 08:57 24.70415 58.11743 36830 ft 532 kts 114°
2026-04-21 08:58 24.67204 58.19081 36837 ft 532 kts 114°
2026-04-21 08:58 24.63989 58.26408 36836 ft 531 kts 114°
2026-04-21 08:59 24.60786 58.33690 36835 ft 530 kts 114°
2026-04-21 08:59 24.57580 58.40966 36831 ft 530 kts 114°
2026-04-21 09:00 24.54354 58.48274 36831 ft 530 kts 114°
2026-04-21 09:00 24.51142 58.55542 36828 ft 529 kts 114°
2026-04-21 09:01 24.47920 58.62819 36827 ft 529 kts 114°
2026-04-21 09:01 24.44700 58.70084 36831 ft 528 kts 114°
2026-04-21 09:02 24.41500 58.77291 36830 ft 528 kts 114°
2026-04-21 09:02 24.38280 58.84531 36829 ft 528 kts 114°
2026-04-21 09:03 24.33456 58.95364 36826 ft 527 kts 114°
2026-04-21 09:03 24.30233 59.02589 36829 ft 527 kts 114°
2026-04-21 09:04 24.27007 59.09809 36836 ft 527 kts 114°
2026-04-21 09:04 24.23780 59.17019 36823 ft 526 kts 114°
2026-04-21 09:05 24.20552 59.24221 36825 ft 526 kts 114°
2026-04-21 09:05 24.17345 59.31366 36828 ft 526 kts 114°
2026-04-21 09:06 24.14117 59.38547 36827 ft 525 kts 114°
2026-04-21 09:06 24.10881 59.45735 36825 ft 525 kts 114°
2026-04-21 09:07 24.07650 59.52899 36824 ft 524 kts 114°
2026-04-21 09:07 24.04440 59.60002 36831 ft 523 kts 114°
2026-04-21 09:08 24.01215 59.67128 36829 ft 522 kts 114°
2026-04-21 09:08 23.97986 59.74255 36821 ft 521 kts 115°
2026-04-21 09:09 23.94764 59.81357 36820 ft 521 kts 115°
2026-04-21 09:09 23.91544 59.88444 36829 ft 520 kts 115°
2026-04-21 09:10 23.88331 59.95505 36824 ft 519 kts 115°
2026-04-21 09:10 23.85113 60.02565 36830 ft 518 kts 115°
2026-04-21 09:11 23.81917 60.09567 36823 ft 517 kts 115°
2026-04-21 09:11 23.78710 60.16582 36823 ft 516 kts 115°
2026-04-21 09:12 23.75505 60.23583 36823 ft 515 kts 115°
2026-04-21 09:12 23.72293 60.30589 36839 ft 514 kts 115°
2026-04-21 09:13 23.69097 60.37548 36838 ft 514 kts 115°
2026-04-21 09:13 23.65912 60.44475 36831 ft 513 kts 115°
2026-04-21 09:14 23.62725 60.51398 36827 ft 513 kts 115°
2026-04-21 09:14 23.59504 60.58382 36842 ft 512 kts 116°
2026-04-21 09:15 23.56298 60.65324 36832 ft 512 kts 116°
2026-04-21 09:15 23.53088 60.72265 36831 ft 512 kts 116°
2026-04-21 09:16 23.49874 60.79203 36834 ft 512 kts 116°
2026-04-21 09:16 23.46659 60.86135 36850 ft 512 kts 116°
2026-04-21 09:17 23.43458 60.93026 36837 ft 512 kts 116°
2026-04-21 09:17 23.40242 60.99941 36843 ft 512 kts 116°
2026-04-21 09:18 23.37017 61.06868 36852 ft 512 kts 116°
2026-04-21 09:18 23.33826 61.13793 36840 ft 511 kts 112°
2026-04-21 09:19 23.31616 61.21121 36853 ft 508 kts 101°
2026-04-21 09:19 23.30625 61.28669 36860 ft 506 kts 93°
2026-04-21 09:20 23.30013 61.36286 36846 ft 506 kts 93°
2026-04-21 09:20 23.29389 61.43919 36850 ft 506 kts 94°
2026-04-21 09:21 23.28723 61.51535 36850 ft 505 kts 94°
2026-04-21 09:21 23.28036 61.59147 36850 ft 505 kts 94°
2026-04-21 09:22 23.27345 61.66749 36850 ft 505 kts 94°
2026-04-21 09:22 23.26652 61.74356 36853 ft 505 kts 94°
2026-04-21 09:23 23.25956 61.81958 36852 ft 504 kts 94°
2026-04-21 09:23 23.25263 61.89501 36851 ft 504 kts 95°
2026-04-21 09:24 23.24562 61.97091 36856 ft 504 kts 95°
2026-04-21 09:24 23.24098 62.02080 36855 ft 504 kts 95°
2026-04-21 09:25 23.23392 62.09658 36855 ft 504 kts 95°
2026-04-21 09:25 23.22682 62.17233 36855 ft 503 kts 95°
2026-04-21 09:26 23.21968 62.24811 36855 ft 503 kts 95°
2026-04-21 09:26 23.21250 62.32391 36856 ft 503 kts 95°
2026-04-21 09:27 23.20535 62.39898 36856 ft 503 kts 95°
2026-04-21 09:27 23.19928 62.46243 36855 ft 503 kts 95°
2026-04-21 09:28 23.19084 62.55025 36852 ft 503 kts 95°
2026-04-21 09:28 23.18472 62.61365 36853 ft 503 kts 95°
2026-04-21 09:29 23.17741 62.68887 36855 ft 503 kts 95°
2026-04-21 09:29 23.17004 62.76445 36855 ft 503 kts 95°
2026-04-21 09:30 23.16264 62.83995 36855 ft 502 kts 96°
2026-04-21 09:30 23.15520 62.91544 36856 ft 502 kts 96°
2026-04-21 09:31 23.14771 62.99106 36859 ft 502 kts 96°
2026-04-21 09:31 23.14020 63.06657 36860 ft 502 kts 96°
2026-04-21 09:32 23.13269 63.14168 36861 ft 502 kts 96°
2026-04-21 09:32 23.12512 63.21699 36860 ft 502 kts 96°
2026-04-21 09:33 23.11749 63.29257 36860 ft 502 kts 96°
2026-04-21 09:33 23.10984 63.36799 36861 ft 502 kts 96°
2026-04-21 09:34 23.10215 63.44338 36857 ft 502 kts 96°
2026-04-21 09:34 23.09441 63.51895 36853 ft 503 kts 97°
2026-04-21 09:35 23.08664 63.59444 36856 ft 503 kts 97°
2026-04-21 09:35 23.07889 63.66942 36852 ft 503 kts 97°
2026-04-21 09:36 23.07105 63.74497 36859 ft 503 kts 97°
2026-04-21 09:36 23.06314 63.82048 36858 ft 503 kts 98°
2026-04-21 09:37 23.04798 63.89443 36865 ft 502 kts 109°
2026-04-21 09:37 23.02249 63.96480 36870 ft 501 kts 114°
2026-04-21 09:38 22.99554 64.03448 36862 ft 501 kts 114°
2026-04-21 09:38 22.96874 64.10439 36861 ft 501 kts 114°
2026-04-21 09:39 22.94223 64.17434 36861 ft 501 kts 114°
2026-04-21 09:39 22.91568 64.24456 36861 ft 501 kts 114°
2026-04-21 09:40 22.88921 64.31449 36859 ft 501 kts 114°
2026-04-21 09:40 22.86274 64.38422 36861 ft 500 kts 114°
2026-04-21 09:41 22.83638 64.45356 36861 ft 500 kts 114°
2026-04-21 09:41 22.80981 64.52334 36859 ft 499 kts 114°
2026-04-21 09:42 22.78323 64.59303 36859 ft 499 kts 114°
2026-04-21 09:42 22.75686 64.66205 36861 ft 499 kts 114°
2026-04-21 09:43 22.73026 64.73160 36862 ft 498 kts 114°
2026-04-21 09:43 22.70367 64.80100 36860 ft 498 kts 114°
2026-04-21 09:44 22.67709 64.87028 36859 ft 498 kts 114°
2026-04-21 09:44 22.65044 64.93962 36861 ft 498 kts 114°
2026-04-21 09:45 22.62378 65.00891 36860 ft 498 kts 113°
2026-04-21 09:45 22.59728 65.07766 36862 ft 498 kts 113°
2026-04-21 09:46 22.57059 65.14680 36860 ft 498 kts 113°
2026-04-21 09:46 22.54838 65.20426 36858 ft 498 kts 113°
2026-04-21 09:47 22.52487 65.26500 36862 ft 498 kts 113°
2026-04-21 09:47 22.49814 65.33398 36860 ft 497 kts 113°
2026-04-21 09:48 22.47133 65.40305 36859 ft 497 kts 113°
2026-04-21 09:48 22.44454 65.47196 36857 ft 497 kts 113°
2026-04-21 09:49 22.41772 65.54087 36857 ft 497 kts 113°
2026-04-21 09:49 22.39086 65.60977 36858 ft 497 kts 113°
2026-04-21 09:50 22.36419 65.67807 36859 ft 497 kts 113°
2026-04-21 09:50 22.33725 65.74696 36858 ft 497 kts 113°
2026-04-21 09:51 22.31030 65.81579 36857 ft 497 kts 113°
2026-04-21 09:51 22.28334 65.88453 36858 ft 497 kts 113°
2026-04-21 09:52 22.25631 65.95337 36856 ft 497 kts 113°
2026-04-21 09:52 22.22952 66.02148 36859 ft 498 kts 113°
2026-04-21 09:53 22.20208 66.09115 36862 ft 498 kts 113°
2026-04-21 09:53 22.17488 66.16011 36857 ft 498 kts 113°
2026-04-21 09:54 22.14761 66.22915 36858 ft 498 kts 113°
2026-04-21 09:54 22.12081 66.29693 36857 ft 499 kts 113°
2026-04-21 09:55 22.09349 66.36589 36858 ft 499 kts 113°
2026-04-21 09:55 22.06635 66.43433 36858 ft 499 kts 112°
2026-04-21 09:56 22.03900 66.50317 36856 ft 499 kts 113°
2026-04-21 09:56 22.01166 66.57184 36855 ft 498 kts 112°
2026-04-21 09:57 21.98433 66.64043 36853 ft 498 kts 112°
2026-04-21 09:57 21.95696 66.70902 36854 ft 498 kts 112°
2026-04-21 09:58 21.92958 66.77757 36855 ft 497 kts 112°
2026-04-21 09:58 21.90240 66.84553 36855 ft 497 kts 112°